[[{"header":{"parameterUnit":"m.s-1","parameterCategory":1,"la1":30.2991,"la2":30.254,"lo1":-89.0895,"lo2":-89.0444,"dy":0.0017,"dx":0.0017,"nx":28,"ny":28,"refTime":"2025-03-28T21:00:00:Z","depth":0,"parameterNumber":2,"parameterNumberName":"U-component_of_WINDS"},"data":[0,0,0,0,0,0,0,0,0,0,0,0,0,0,0,0,0,0,0,0,0,0,0,0,0,0,0,0,0,0,0,0,0,0,0,0,0,0,0,0,0,0,0,0,0,0,0,0,0,0,0,0,0,0,0,0,0,0,-7.1546,-7.1548,0,-7.1753,-7.1756,-7.1758,-7.1799,-7.1797,-7.1796,-7.1794,-7.1997,-7.2004,-7.2011,0,0,0,0,0,0,0,0,0,0,0,0,0,-7.1179,-7.1186,-7.1546,-7.1549,-7.1551,-7.1753,-7.1756,-7.1758,-7.1799,-7.1797,-7.1795,-7.1794,-7.1995,-7.2003,-7.2012,0,0,0,0,0,0,0,0,0,0,0,0,0,-7.1357,-7.1188,-7.1546,-7.1596,-7.1603,-7.1752,-7.1756,-7.1759,-7.18,-7.1797,-7.1795,-7.1793,-7.1992,-7.2002,-7.2013,-7.2124,0,0,-7.2044,-7.2049,0,0,0,0,0,0,0,0,-7.1347,-7.1371,-7.1586,-7.1593,-7.1601,-7.1748,-7.1701,-7.1881,-7.18,-7.1725,-7.1794,-7.1791,-7.1916,-7.1932,-7.1976,-7.2133,-7.2142,-7.2045,-7.2051,-7.2056,-7.2059,0,0,0,0,0,0,0,-7.1335,-7.1362,-7.1628,-7.1589,-7.1598,-7.1606,-7.1629,-7.1735,-7.1831,-7.1731,-7.1735,-7.1759,-7.1919,-7.1966,-7.1981,-7.2145,-7.2045,-7.2054,-7.206,-7.2064,-7.2404,-7.2407,0,0,0,0,0,0,-7.1314,-7.1351,-7.1621,-7.1634,-7.1466,-7.1615,-7.164,-7.1703,-7.183,-7.1847,-7.1761,-7.176,-7.1949,-7.1969,-7.1988,-7.2126,-7.2056,-7.2065,-7.2071,-7.2401,-7.2405,-7.2408,0,0,0,0,0,0,-7.1306,-7.1338,-7.1613,-7.1494,-7.1529,-7.1624,-7.1694,-7.1708,-7.1755,-7.1852,-7.1869,-7.1791,-7.1948,-7.1974,-7.2091,-7.2134,-7.207,-7.2079,-7.2398,-7.2402,-7.2406,-7.2403,0,0,0,0,0,0,-7.1296,-7.1335,-7.138,-7.1495,-7.1536,-7.1713,-7.1697,-7.1714,-7.1774,-7.1775,-7.1885,-7.1901,-7.1948,-7.2075,-7.2101,-7.2147,-7.2088,-7.2394,-7.24,-7.2405,-7.24,-7.2407,-7.2413,0,0,0,0,0,-7.1282,-7.1368,-7.1382,-7.1414,-7.1594,-7.1716,-7.1739,-7.1794,-7.1777,-7.1822,-7.1885,-7.1898,-7.2126,-7.2087,-7.2116,-7.2166,-7.2392,-7.2398,-7.2405,-7.2397,-7.2406,-7.2413,0,0,0,0,0,0,-7.1252,-7.1384,-7.14,-7.1527,-7.161,-7.1723,-7.178,-7.1801,-7.1889,-7.1886,-7.1948,-7.1973,-7.2086,-7.2138,-7.2092,-7.228,-7.2258,-7.227,-7.2242,-7.2251,-7.2257,-7.2241,-7.2096,0,0,0,0,0,-7.1261,-7.1352,-7.1461,-7.1562,-7.1604,-7.1685,-7.174,-7.1776,-7.1863,-7.1898,-7.1969,-7.2051,-7.2142,-7.22,-7.2288,-7.2409,-7.2433,-7.2458,-7.2464,-7.2469,-7.2478,-7.2546,-7.2558,-7.2429,-7.2429,-7.2429,0,0,-7.1278,-7.1362,-7.1414,-7.1558,-7.1627,-7.1717,-7.1714,-7.1809,-7.1876,-7.1911,-7.2026,-7.2082,-7.2178,-7.2297,-7.2353,-7.2344,-7.252,-7.2478,-7.2481,-7.2487,-7.2553,-7.2566,-7.2576,-7.2433,-7.2432,-7.2432,0,0,-7.1356,-7.1429,-7.1521,-7.1592,-7.1697,-7.1752,-7.1774,-7.1884,-7.1923,-7.2041,-7.2069,-7.2149,-7.2303,-7.2371,-7.2425,-7.2532,-7.2546,-7.2559,-7.2591,-7.2656,-7.2666,-7.2676,-7.2712,-7.2725,-7.2568,-7.2568,-7.2568,0,-7.1363,-7.1503,-7.1565,-7.166,-7.1722,-7.1763,-7.1855,-7.1919,-7.2047,-7.2087,-7.2077,-7.2273,-7.234,-7.2476,-7.2502,-7.2546,-7.2571,-7.2545,-7.2661,-7.2671,-7.268,-7.2715,-7.2729,-7.2569,-7.2569,-7.2569,-7.2569,0,-7.1506,-7.1602,-7.1664,-7.179,-7.1859,-7.1952,-7.2026,-7.2088,-7.2119,-7.2173,-7.2292,-7.2376,-7.2482,-7.2517,-7.2547,-7.2657,-7.2648,-7.2649,-7.2626,-7.2692,-7.2726,-7.274,-7.257,-7.2569,-7.2569,-7.2569,0,0,-7.1566,-7.1729,-7.175,-7.1808,-7.1929,-7.2004,-7.2099,-7.2206,-7.2257,-7.2345,-7.2424,-7.2556,-7.2558,-7.2619,-7.2657,-7.2715,-7.2792,-7.2708,-7.2711,-7.2719,-7.2918,-7.2915,-7.293,-7.2805,-7.2808,-7.281,-7.2909,0,-7.1657,-7.1831,-7.189,-7.2032,-7.2122,-7.2163,-7.2245,-7.2327,-7.2382,-7.2463,-7.2523,-7.2614,-7.2611,-7.2648,-7.2707,-7.277,-7.2832,-7.2764,-7.2876,-7.288,-7.2848,-7.2948,-7.2945,-7.3034,-7.2923,-7.2925,-7.2927,0,-7.1785,-7.1878,-7.203,-7.2141,-7.2181,-7.2254,-7.2358,-7.2437,-7.253,-7.2566,-7.2637,-7.2671,-7.277,-7.2745,-7.2881,-7.2833,-7.2883,-7.2921,-7.2926,-7.2936,-7.2905,-7.2958,-7.3064,-7.3076,-7.2949,-7.2947,-7.2946,0,-7.1812,-7.1975,-7.2087,-7.2136,-7.2269,-7.2319,-7.2377,-7.2469,-7.253,-7.262,-7.2659,-7.2759,-7.2812,-7.2888,-7.2947,-7.2924,-7.3078,-7.3058,-7.3108,-7.3106,-7.3135,-7.3132,-7.3248,-7.3172,-7.3172,-7.3171,-7.3171,0,-7.1906,-7.1996,-7.2102,-7.217,-7.2273,-7.2341,-7.2439,-7.2499,-7.2581,-7.266,-7.2702,-7.2774,-7.2851,-7.2933,-7.2981,-7.3085,-7.3109,-7.3139,-7.315,-7.3134,-7.313,-7.3165,-7.3159,-7.3175,-7.3174,-7.3173,-7.3173,0,-7.1951,-7.2026,-7.2151,-7.2268,-7.23,-7.237,-7.2469,-7.2536,-7.2594,-7.2693,-7.272,-7.281,-7.2909,-7.2978,-7.3104,-7.3136,-7.3249,-7.326,-7.3218,-7.3223,-7.3268,-7.3262,-7.3409,-7.3431,-7.3341,-7.3342,-7.3343,0,-7.2005,-7.2076,-7.2202,-7.226,-7.2318,-7.241,-7.2474,-7.2543,-7.2607,-7.2721,-7.2774,-7.2877,-7.2963,-7.312,-7.3194,-7.3292,-7.3304,-7.3349,-7.3318,-7.33,-7.3302,-7.3296,-7.3303,-7.3352,-7.3353,-7.3353,-7.3354,0,-7.2091,-7.2125,-7.2217,-7.2322,-7.2397,-7.2482,-7.2567,-7.2611,-7.2696,-7.2765,-7.2869,-7.2936,-7.3068,-7.3169,-7.3274,-7.333,-7.3355,-7.3364,-7.338,-7.3362,-7.3334,-7.3348,-7.3228,-7.3359,-7.3358,-7.3358,-7.3358,-7.3357,-7.2142,-7.2207,-7.2306,-7.2407,-7.2479,-7.2558,-7.2627,-7.2695,-7.2784,-7.2898,-7.2934,-7.3041,-7.3134,-7.3278,-7.3337,-7.342,-7.3416,-7.344,-7.3446,-7.345,-7.3449,-7.3324,-7.344,-7.344,-7.344,-7.344,-7.344,0,-7.2228,-7.2295,-7.2387,-7.2507,-7.2586,-7.2607,-7.2703,-7.2766,-7.2861,-7.2947,-7.3032,-7.3151,-7.325,-7.3334,-7.3436,-7.3487,-7.3501,-7.3511,-7.3506,-7.3519,-7.3448,-7.3422,-7.3498,-7.3498,-7.3498,-7.3498,-7.3498,-7.3498,-7.2283,-7.2394,-7.244,-7.2588,-7.2654,-7.2762,-7.2814,-7.2887,-7.2956,-7.3088,-7.3172,-7.3227,-7.3312,-7.3421,-7.3512,-7.3534,-7.3568,-7.3576,-7.36,-7.3531,-7.3524,-7.3517,-7.3494,-7.3583,-7.3583,-7.3664,-7.3665,-7.3665]},{"header":{"parameterUnit":"m.s-1","parameterCategory":1,"la1":30.2991,"la2":30.254,"lo1":-89.0895,"lo2":-89.0444,"dy":0.0017,"dx":0.0017,"nx":28,"ny":28,"refTime":"2025-03-28T21:00:00:Z","depth":0,"parameterNumber":3,"parameterNumberName":"V-component_of_WINDS"},"data":[0,0,0,0,0,0,0,0,0,0,0,0,0,0,0,0,0,0,0,0,0,0,0,0,0,0,0,0,0,0,0,0,0,0,0,0,0,0,0,0,0,0,0,0,0,0,0,0,0,0,0,0,0,0,0,0,0,0,5.3684,5.3684,0,5.3705,5.3705,5.3706,5.3664,5.3663,5.3661,5.366,5.3679,5.368,5.3682,0,0,0,0,0,0,0,0,0,0,0,0,0,5.3606,5.3608,5.3684,5.3684,5.3684,5.3705,5.3705,5.3706,5.3664,5.3662,5.3661,5.3659,5.3678,5.368,5.3682,0,0,0,0,0,0,0,0,0,0,0,0,0,5.3635,5.3609,5.3684,5.3666,5.3665,5.3705,5.3705,5.3706,5.3664,5.3662,5.366,5.3658,5.3677,5.368,5.3682,5.374,0,0,5.369,5.3692,0,0,0,0,0,0,0,0,5.3634,5.3638,5.3669,5.3668,5.3666,5.368,5.3685,5.3717,5.3665,5.3665,5.366,5.3657,5.368,5.3683,5.3691,5.374,5.3741,5.3691,5.3692,5.3693,5.3694,0,0,0,0,0,0,0,5.3632,5.3637,5.3692,5.3669,5.3668,5.3657,5.3659,5.3691,5.3683,5.3664,5.3661,5.3665,5.3679,5.3689,5.3691,5.3741,5.3691,5.3693,5.3695,5.3696,5.3843,5.3845,0,0,0,0,0,0,5.3632,5.3635,5.3691,5.3693,5.3645,5.366,5.3662,5.3677,5.3683,5.3682,5.3666,5.3663,5.3685,5.3688,5.3692,5.3761,5.3693,5.3696,5.3697,5.384,5.3843,5.3846,0,0,0,0,0,0,5.3631,5.3637,5.3691,5.3663,5.3669,5.3664,5.3681,5.3679,5.3688,5.3685,5.3683,5.3677,5.3684,5.3688,5.3729,5.3761,5.3697,5.37,5.3838,5.3841,5.3844,5.39,0,0,0,0,0,0,5.3629,5.3637,5.3659,5.3664,5.3671,5.3728,5.3683,5.3681,5.3693,5.3689,5.3694,5.3693,5.3682,5.3725,5.3732,5.3764,5.3702,5.3835,5.3839,5.3843,5.3895,5.3905,5.3913,0,0,0,0,0,5.3626,5.3672,5.366,5.3667,5.3698,5.373,5.3734,5.3721,5.3696,5.3718,5.3716,5.3693,5.3757,5.373,5.3737,5.377,5.3832,5.3838,5.3843,5.3891,5.3903,5.3913,0,0,0,0,0,0,5.3668,5.3672,5.3659,5.3708,5.372,5.3723,5.375,5.3733,5.375,5.3745,5.3728,5.3729,5.3774,5.3776,5.3746,5.3828,5.379,5.3797,5.3825,5.3836,5.3845,5.3844,5.3704,0,0,0,0,0,5.3684,5.371,5.3712,5.3755,5.3762,5.3755,5.3768,5.3758,5.3768,5.3772,5.3773,5.3783,5.3806,5.3821,5.3841,5.3895,5.3897,5.3922,5.3931,5.3938,5.3945,5.3976,5.3988,5.3863,5.3863,5.3863,0,0,5.3715,5.372,5.3738,5.3764,5.3771,5.3799,5.3759,5.3789,5.381,5.3776,5.3816,5.3818,5.3828,5.3877,5.3898,5.388,5.398,5.3945,5.3951,5.3953,5.3983,5.3995,5.4006,5.3866,5.3866,5.3865,0,0,5.3787,5.3793,5.3832,5.3841,5.3853,5.3849,5.3859,5.3866,5.3866,5.3906,5.3883,5.3907,5.3945,5.3955,5.3964,5.4044,5.4025,5.4051,5.4098,5.413,5.4139,5.4148,5.4179,5.419,5.4057,5.4057,5.4057,0,5.3824,5.3866,5.3853,5.3887,5.39,5.3873,5.3913,5.3921,5.3939,5.3949,5.3928,5.3979,5.3983,5.4035,5.4056,5.4063,5.4075,5.405,5.4139,5.4148,5.4156,5.4185,5.4196,5.4061,5.406,5.406,5.406,0,5.3912,5.3942,5.3971,5.3993,5.4009,5.4045,5.4038,5.4056,5.4045,5.4044,5.4086,5.4092,5.4114,5.4125,5.4113,5.4177,5.4165,5.4142,5.4105,5.4171,5.4199,5.4209,5.4065,5.4064,5.4063,5.4062,0,0,5.4009,5.4026,5.4037,5.4048,5.4062,5.4084,5.412,5.4144,5.4161,5.4175,5.4205,5.424,5.422,5.4231,5.4221,5.4248,5.4314,5.4222,5.4222,5.424,5.4387,5.4406,5.4419,5.4301,5.4303,5.4305,5.4387,0,5.4083,5.4146,5.4138,5.4199,5.4227,5.4204,5.4236,5.4248,5.4248,5.4272,5.4271,5.4297,5.4267,5.4275,5.43,5.4301,5.4344,5.4294,5.433,5.4332,5.433,5.4433,5.4452,5.4529,5.4397,5.4399,5.44,0,5.4176,5.4197,5.4262,5.4275,5.4287,5.4315,5.4339,5.4361,5.4375,5.4374,5.4388,5.4374,5.441,5.4372,5.4423,5.439,5.4404,5.4407,5.4409,5.4413,5.4371,5.4441,5.4553,5.4566,5.4416,5.4415,5.4414,0,5.4244,5.4288,5.4334,5.4343,5.4358,5.438,5.4387,5.4399,5.4415,5.4435,5.4445,5.4468,5.4481,5.45,5.4492,5.4464,5.4545,5.4506,5.4546,5.4546,5.4564,5.4564,5.4682,5.4571,5.4571,5.4571,5.457,0,5.4328,5.4369,5.4365,5.4393,5.4439,5.4429,5.4474,5.4478,5.449,5.4519,5.4499,5.4526,5.4513,5.454,5.4534,5.4579,5.4584,5.4584,5.4582,5.4587,5.4587,5.4597,5.4592,5.4574,5.4573,5.4572,5.4572,0,5.4411,5.441,5.4459,5.4471,5.4475,5.4508,5.4518,5.4545,5.4545,5.4582,5.4589,5.4589,5.4619,5.4614,5.4646,5.4642,5.4699,5.4689,5.4695,5.4694,5.4735,5.4732,5.4865,5.4883,5.4758,5.4759,5.476,0,5.4466,5.4497,5.4514,5.4533,5.4543,5.4573,5.4591,5.4582,5.4601,5.4622,5.4646,5.4675,5.4698,5.4748,5.475,5.4776,5.4768,5.4813,5.4771,5.4776,5.4771,5.477,5.4775,5.4821,5.4823,5.4824,5.4825,0,5.4563,5.4562,5.4589,5.4617,5.4639,5.466,5.4678,5.4695,5.4688,5.4711,5.4743,5.4761,5.4797,5.4826,5.4851,5.4858,5.4841,5.4838,5.4849,5.4855,5.4858,5.4859,5.472,5.4835,5.4834,5.4833,5.4833,5.4832,5.4635,5.4664,5.4682,5.4713,5.4727,5.4746,5.4773,5.4777,5.4805,5.4835,5.4828,5.4865,5.488,5.4912,5.4922,5.495,5.4934,5.4949,5.4953,5.4958,5.4964,5.4852,5.4954,5.4954,5.4954,5.4954,5.4953,0,5.4734,5.4745,5.4774,5.4803,5.4829,5.4812,5.4833,5.4855,5.4889,5.4905,5.493,5.4968,5.4998,5.5003,5.5031,5.5054,5.5047,5.5062,5.5061,5.5063,5.4976,5.4965,5.5067,5.5067,5.5067,5.5067,5.5067,5.5067,5.4788,5.4837,5.4839,5.4895,5.4905,5.4943,5.4957,5.4975,5.4989,5.5033,5.5059,5.5063,5.5076,5.5105,5.5132,5.5133,5.5145,5.5163,5.5161,5.508,5.5069,5.5058,5.5048,5.5165,5.5166,5.5246,5.5247,5.5248]}]]